Weather in El'kush

Russia / Karachay-Cherkess Republic     43°51′44″N   42°38′42″E
temp.,
°C
wind,
m/s
gust,
m/s
humid.,
%
clouds,
%
prec.,
mm/h
press.,
hPa
HPBL,
m
12 april, mon
mon1200:00+4w129476 0.0 1016177
03:00+3nnw219891 0.0 101729
06:00+2n129996 0.0 101885
09:00+3nnw1195100 0.0 1019184
12:00+3ne2295100 0.0 1020409
15:00+3ne2296100 0.1 1021437
18:00+2e2298100 0.2 1021321
21:00+2e1195100 0.3 1022213
13 april, tue
tue1300:00+2ne119899 0.2 1022132
03:00+2sw1197100 0.8 1022151
06:00+2ese1298100 0.2 1022187
09:00+2ne2299100 0.6 1021183
12:00+1nnw1199100 3.4 1022169
15:00+3nne119299 4.6 1021409
18:00+3nnw1188100 0.1 1020316
21:00+2nw1192100 0.3 1020189
14 april, wed
wed1400:00+1wnw1299100 4.8 1019103
03:00+1wsw1299100 7.4 1018197
06:00+1wsw2294100 0.5 1018137
09:00+4w248271 0.5 1017506
12:00+7wnw2466100 0.0 10151175
15:00+4nnw3493100 0.4 1017625
18:00+4nnw1279100 0.6 1017326
21:00+1sw228787 0.6 101830
15 april, thu
thu1500:00+1sw327929 0.0 101825
03:000sw32640 0.0 101823
06:000sw32530 0.0 101924
09:00+7ene113988 0.0 1015540
12:00+9ne33405 0.0 10151493
15:00+10ne544685 0.0 10141476
18:00+7ene346496 0.1 1016463
21:00+4s2276100 0.1 101815
16 april, fri
fri1600:00+3ssw22771 0.0 101821
03:00+3ssw22650 0.0 101816
06:00+3ssw22652 0.0 101817
09:00+8ene33583 0.0 1016767
12:00+11ene445633 0.1 10151233
15:00+11e546137 1.2 10151020
18:00+9e33714 2.1 1015256
21:00+6wnw228127 2.4 101723